Wind_Speed
23 22 21 20 19 18 16 16 15 15 16 17 17 17 18 19 20 21 23 28 32 34 35 36 36 35 33 33 31 30 29 28 26 25 24 23 23 22 22 21 20 21 21
22 21 20 20 20 20 19 18 17 17 17 18 18 18 18 19 20 20 21 23 28 32 33 33 34 34 32 33 33 32 32 31 30 28 27 26 25 25 25 24 23 23 23
21 20 20 20 21 21 21 21 20 19 19 19 19 19 19 20 21 21 21 22 25 29 32 32 32 33 33 34 35 34 34 34 33 33 31 29 28 27 27 27 26 25 25
21 21 21 21 22 22 23 23 22 22 22 21 21 20 20 21 23 23 24 24 25 27 30 32 33 34 35 35 35 35 35 35 34 34 34 33 31 29 28 28 27 26 26
22 23 23 23 23 23 23 24 24 24 24 23 23 22 22 23 23 24 25 25 26 28 30 31 32 33 35 35 35 36 36 36 36 36 36 36 35 33 32 30 28 27 27
24 24 25 24 23 23 23 24 24 25 25 25 25 24 24 24 24 24 24 25 26 27 28 30 31 32 33 34 35 36 36 36 36 36 36 37 36 36 35 32 30 28 28
23 24 24 23 23 23 23 23 24 24 25 25 26 26 25 25 24 25 24 25 26 26 27 27 28 29 31 32 34 35 35 35 35 35 34 35 36 36 35 32 30 28 27
23 23 23 22 23 23 23 23 23 24 24 25 26 26 26 26 25 25 25 25 26 26 26 26 26 26 26 29 31 32 32 32 33 34 34 35 35 35 33 30 29 29 29
22 22 22 23 23 23 23 23 23 23 23 24 25 26 26 26 26 26 26 26 26 25 25 25 25 25 25 25 27 29 31 31 32 33 35 35 35 35 33 31 31 31 31
22 22 22 23 23 23 23 24 24 24 24 25 25 25 26 26 25 25 26 27 26 25 25 25 24 24 24 25 26 28 30 31 31 32 34 35 34 33 33 32 32 33 33
21 21 21 21 21 21 21 22 23 24 25 26 27 27 27 27 26 26 26 26 26 26 25 24 24 23 22 23 25 27 28 29 31 32 33 34 33 32 32 32 33 34 33
19 19 18 18 18 18 19 20 22 24 26 27 28 29 28 28 27 27 27 26 26 26 25 24 23 22 22 23 24 25 26 27 28 30 31 32 33 33 33 34 34 35 34
16 16 15 15 15 16 18 19 21 23 25 27 28 29 29 29 28 27 27 27 27 26 25 24 22 22 22 22 22 23 25 26 27 28 30 32 33 34 35 36 37 37 36
14 13 12 13 14 15 16 17 19 21 22 23 25 26 27 27 26 27 27 26 26 25 24 23 22 22 22 21 21 21 22 23 24 26 29 31 32 34 35 36 38 39 39
11 10 11 12 13 14 15 16 16 16 15 16 17 20 22 22 23 24 24 25 25 24 22 22 22 22 21 21 21 21 21 20 21 24 27 29 32 35 37 37 38 40 41
9 10 11 11 12 13 14 14 14 14 10 7 7 10 13 15 17 18 19 21 21 21 20 20 20 20 20 21 21 21 21 20 20 22 24 28 31 34 35 37 38 39 40
9 10 11 11 12 12 13 13 13 12 10 6 2 3 6 9 11 13 14 15 17 17 17 18 18 19 19 20 21 21 21 22 22 22 23 25 27 29 32 33 35 37 37
9 10 11 11 11 12 12 12 12 11 10 7 4 2 2 4 5 7 8 10 12 13 15 16 17 18 19 20 21 22 22 23 23 24 24 25 26 28 29 30 32 34 35
10 10 10 11 11 11 11 11 11 10 9 7 5 3 2 2 3 4 5 7 8 10 12 14 16 17 19 20 21 22 23 23 24 25 26 27 28 29 30 31 32 33 34
10 10 10 9 9 9 9 10 10 9 8 7 6 5 3 2 1 2 4 5 7 9 11 13 14 16 18 19 20 22 23 24 25 26 27 28 30 31 32 33 34 34 34
10 10 9 9 9 9 9 9 9 9 9 8 7 6 5 4 3 1 1 3 5 7 9 11 12 14 15 17 18 20 21 23 24 24 26 27 28 30 32 33 34 35 35
10 10 10 10 10 10 10 10 10 10 9 9 8 7 7 6 5 3 2 2 4 5 7 8 10 11 13 14 16 17 18 19 20 22 24 25 26 27 28 30 31 33 34
11 11 11 12 12 12 12 12 12 12 12 11 10 10 9 8 7 6 6 5 5 5 6 7 8 9 10 11 13 14 15 16 18 19 20 20 21 22 23 24 25 27 29
11 11 12 12 12 13 13 13 13 14 13 13 12 12 11 10 10 9 9 8 8 7 7 7 7 7 8 9 10 12 13 14 15 16 16 16 17 18 19 20 21 23 25
11 12 12 12 13 13 14 14 14 15 15 15 14 14 13 13 12 12 11 11 11 10 10 10 9 9 9 9 10 11 12 13 14 14 14 15 15 16 16 17 19 20 22
11 12 12 13 13 14 15 16 16 16 16 17 17 17 17 16 16 15 15 14 14 13 13 13 12 12 12 12 12 12 12 12 13 13 13 14 14 15 16 16 17 19 20
Wind_Direction
297 290 282 278 276 275 276 273 269 264 261 258 256 256 256 255 256 258 252 246 242 239 236 234 232 234 237 237 238 240 242 243 246 247 247 248 249 248 246 246 246 245 246
297 292 283 278 276 275 275 274 272 270 267 264 261 256 254 254 256 254 252 246 242 238 237 234 233 235 237 239 241 241 242 243 245 249 250 250 250 249 249 248 249 249 250
293 289 284 280 278 277 275 274 272 270 268 266 264 259 255 254 253 252 250 246 243 239 237 236 236 236 238 241 241 242 243 245 245 247 250 251 249 249 250 251 252 252 254
287 284 282 281 281 279 277 274 271 269 267 265 264 260 256 253 251 250 250 250 245 241 240 240 240 241 242 243 242 243 244 246 247 247 249 250 248 248 250 252 252 253 255
282 280 281 282 281 280 277 274 270 266 264 262 261 259 256 254 252 251 251 250 248 246 244 243 244 244 243 242 242 243 245 248 249 249 249 249 248 247 249 251 252 253 254
281 282 284 285 283 280 278 273 269 264 261 259 258 257 255 254 253 253 252 249 248 247 246 245 247 248 244 242 243 245 247 249 249 250 249 248 246 246 248 250 251 251 252
284 285 286 285 283 281 278 273 268 263 260 258 256 255 254 252 252 252 251 249 248 248 248 248 248 248 245 243 243 245 247 248 248 247 246 245 244 245 245 247 247 247 248
287 287 287 285 283 281 277 273 269 264 259 256 255 254 253 252 252 252 250 248 247 247 249 249 249 249 247 245 244 244 244 246 246 245 243 243 244 243 243 243 242 242 245
291 290 289 287 284 281 277 274 270 266 260 256 254 253 252 250 250 250 250 248 247 248 249 249 250 250 250 248 246 245 245 247 248 246 243 241 242 240 238 238 238 241 245
293 293 291 289 286 282 277 273 269 266 262 258 255 253 252 251 250 250 248 247 247 248 249 248 248 247 247 248 248 248 249 249 247 246 243 240 238 236 235 235 237 241 243
298 297 295 292 289 285 281 275 271 268 265 261 258 256 254 252 251 249 247 246 248 249 249 248 247 248 248 248 247 248 248 249 249 247 243 239 236 235 235 236 237 240 244
304 303 300 297 295 293 289 284 278 273 269 264 260 256 254 254 252 249 246 245 246 247 249 249 248 248 248 250 250 252 252 251 251 248 245 241 239 238 237 238 239 241 244
313 310 308 307 307 304 299 294 288 281 274 267 260 255 252 252 250 246 245 244 244 246 247 247 247 248 248 251 254 256 257 257 257 253 247 244 242 241 241 241 241 242 244
318 316 315 317 318 317 313 309 302 295 283 269 258 251 248 248 246 243 243 242 243 244 243 243 244 246 249 252 256 260 262 262 261 258 252 248 245 243 242 243 243 244 245
324 325 327 328 329 329 329 326 322 316 301 278 258 246 243 243 243 241 239 239 238 240 241 240 241 245 250 254 258 262 265 267 263 258 253 248 245 244 244 245 245 245 244
331 335 336 337 339 342 343 341 340 342 337 310 259 239 235 235 237 235 234 235 233 235 235 237 241 245 251 254 258 261 264 265 264 260 256 252 249 247 245 245 246 247 246
337 339 340 340 342 345 349 354 356 1 5 1 341 223 217 215 223 226 226 227 228 230 233 239 243 248 253 256 258 259 262 264 264 263 262 260 257 254 251 249 248 248 248
340 341 342 342 342 346 352 358 4 8 14 25 43 76 152 194 210 216 220 224 226 231 239 245 249 252 256 259 261 262 264 265 266 266 265 264 262 260 259 258 257 255 252
344 345 344 344 346 350 356 3 10 15 22 30 41 60 88 149 191 212 226 234 241 245 249 252 255 257 260 263 264 265 266 267 268 269 268 266 265 264 262 261 260 259 258
351 350 349 348 351 357 5 11 19 24 29 36 42 50 57 72 174 225 238 245 250 253 256 258 259 261 262 264 265 267 269 270 270 270 269 268 266 264 263 261 260 259 258
6 4 4 6 8 13 19 25 31 35 39 44 49 53 58 63 67 67 261 261 262 264 266 267 268 268 268 270 270 271 271 272 272 272 271 270 269 266 263 261 260 258 257
22 24 28 30 32 35 39 42 45 47 48 51 53 55 56 55 51 41 17 337 307 294 289 286 283 279 279 279 279 278 278 279 278 278 277 275 273 270 267 263 261 259 257
37 42 46 48 50 52 54 55 56 57 59 60 60 59 58 56 51 43 31 15 356 335 320 312 306 299 294 292 290 289 289 288 288 287 286 283 279 275 271 267 264 261 258
51 57 61 63 64 64 64 65 66 67 67 67 66 65 62 58 52 47 39 32 25 16 7 356 345 333 323 316 310 306 303 300 300 298 295 290 285 281 275 271 268 265 262
63 68 72 73 73 73 73 73 72 72 70 69 67 65 63 59 55 52 48 45 42 39 35 29 21 12 1 350 339 331 324 317 312 308 303 298 295 291 284 278 274 270 266
73 77 79 78 77 76 75 74 74 73 72 70 68 67 65 63 61 59 56 53 50 46 42 37 30 23 16 10 3 356 349 342 335 327 319 310 303 298 292 286 281 277 273
Height
5791 5789 5788 5787 5786 5786 5785 5784 5784 5784 5783 5784 5784 5784 5784 5784 5784 5784 5785 5786 5789 5792 5796 5800 5804 5808 5811 5814 5817 5820 5823 5825 5827 5829 5831 5833 5834 5835 5836 5837 5839 5840 5842
5786 5784 5783 5782 5781 5781 5780 5780 5779 5779 5779 5779 5779 5779 5779 5780 5780 5780 5780 5781 5783 5786 5789 5793 5797 5801 5804 5807 5810 5813 5816 5819 5821 5823 5825 5827 5829 5830 5831 5832 5833 5835 5837
5782 5780 5779 5777 5776 5775 5775 5774 5774 5773 5773 5773 5773 5773 5774 5774 5774 5775 5776 5777 5778 5780 5783 5786 5790 5793 5797 5800 5803 5806 5809 5811 5814 5816 5818 5821 5823 5824 5825 5826 5827 5829 5831
5777 5775 5774 5773 5771 5770 5769 5768 5767 5767 5767 5767 5767 5767 5768 5768 5768 5769 5770 5771 5772 5774 5777 5779 5782 5785 5789 5792 5795 5798 5801 5803 5806 5809 5811 5813 5816 5818 5819 5819 5821 5822 5824
5771 5770 5769 5767 5766 5764 5763 5762 5761 5760 5760 5760 5761 5761 5761 5762 5762 5763 5764 5765 5767 5768 5770 5772 5775 5777 5780 5783 5787 5790 5792 5795 5798 5800 5803 5805 5808 5810 5811 5812 5814 5816 5817
5765 5764 5762 5761 5759 5757 5756 5755 5754 5753 5753 5753 5754 5754 5755 5755 5756 5757 5758 5759 5760 5762 5763 5765 5767 5769 5772 5775 5778 5781 5784 5787 5789 5792 5794 5797 5800 5802 5804 5806 5808 5809 5811
5759 5757 5755 5754 5752 5750 5749 5748 5747 5746 5746 5746 5746 5747 5748 5749 5750 5750 5751 5752 5754 5755 5756 5758 5760 5762 5764 5767 5769 5772 5775 5777 5780 5783 5785 5788 5790 5793 5795 5798 5800 5802 5804
5752 5750 5748 5747 5745 5743 5741 5740 5739 5739 5739 5739 5739 5740 5741 5741 5743 5743 5744 5745 5747 5748 5750 5751 5753 5755 5757 5759 5761 5764 5766 5769 5771 5774 5777 5780 5782 5785 5788 5791 5793 5795 5796
5746 5743 5741 5739 5737 5736 5734 5733 5732 5731 5731 5731 5731 5732 5733 5734 5735 5736 5737 5738 5740 5742 5743 5745 5746 5748 5750 5752 5754 5756 5758 5761 5763 5766 5768 5771 5773 5776 5780 5783 5786 5787 5789
5739 5737 5734 5732 5730 5728 5726 5725 5724 5723 5723 5723 5723 5724 5725 5726 5727 5728 5730 5731 5733 5735 5736 5738 5740 5741 5743 5745 5747 5749 5751 5752 5755 5757 5759 5762 5765 5768 5771 5775 5777 5779 5781
5733 5730 5728 5725 5723 5721 5719 5717 5716 5715 5715 5715 5715 5715 5716 5718 5719 5720 5722 5724 5726 5727 5729 5731 5733 5735 5737 5738 5740 5742 5743 5745 5746 5748 5751 5754 5756 5759 5763 5766 5769 5771 5774
5728 5725 5722 5719 5717 5715 5712 5710 5709 5707 5706 5705 5705 5706 5707 5709 5711 5712 5714 5716 5718 5720 5722 5724 5726 5728 5730 5732 5733 5734 5736 5737 5739 5741 5743 5746 5749 5751 5754 5757 5760 5763 5765
5723 5720 5717 5714 5712 5709 5706 5703 5701 5698 5696 5695 5695 5696 5698 5700 5702 5704 5707 5709 5711 5713 5716 5718 5720 5722 5724 5725 5727 5728 5729 5730 5732 5733 5735 5738 5740 5743 5746 5748 5751 5754 5756
5719 5716 5714 5711 5708 5705 5701 5697 5693 5689 5686 5684 5684 5686 5688 5691 5693 5696 5699 5701 5704 5706 5709 5711 5714 5716 5718 5720 5721 5722 5723 5723 5724 5726 5727 5729 5731 5734 5736 5739 5741 5744 5747
5716 5713 5711 5708 5704 5701 5697 5693 5688 5683 5678 5676 5676 5677 5680 5683 5686 5688 5691 5694 5697 5701 5703 5706 5708 5711 5712 5714 5715 5716 5717 5717 5718 5718 5719 5721 5723 5725 5727 5729 5731 5733 5736
5714 5711 5708 5705 5702 5698 5694 5690 5685 5681 5676 5673 5672 5673 5675 5678 5680 5683 5686 5689 5692 5695 5698 5700 5703 5705 5707 5708 5709 5710 5711 5711 5711 5712 5712 5713 5714 5716 5717 5719 5721 5723 5725
5712 5709 5706 5703 5700 5697 5693 5689 5685 5681 5677 5674 5673 5673 5674 5676 5678 5680 5682 5685 5688 5691 5693 5696 5698 5700 5701 5702 5703 5704 5705 5705 5705 5705 5706 5706 5707 5708 5708 5709 5711 5712 5714
5709 5707 5704 5701 5699 5696 5693 5689 5686 5682 5679 5676 5675 5675 5675 5676 5678 5679 5681 5683 5685 5688 5690 5692 5694 5695 5696 5697 5698 5698 5698 5699 5699 5699 5699 5699 5700 5700 5701 5701 5702 5703 5704
5708 5705 5703 5700 5698 5695 5692 5689 5686 5683 5681 5679 5678 5677 5677 5678 5679 5680 5681 5683 5684 5685 5687 5688 5689 5690 5691 5691 5692 5692 5692 5692 5692 5692 5692 5691 5691 5692 5692 5693 5693 5694 5695
5707 5704 5702 5699 5697 5695 5692 5690 5687 5685 5683 5681 5680 5679 5679 5679 5679 5680 5681 5682 5682 5683 5684 5685 5685 5686 5686 5686 5686 5685 5685 5685 5684 5683 5683 5682 5682 5682 5682 5683 5683 5684 5685
5706 5704 5701 5699 5697 5695 5692 5690 5688 5686 5684 5683 5682 5681 5680 5680 5680 5680 5680 5680 5681 5681 5681 5681 5681 5681 5680 5680 5679 5679 5678 5677 5676 5675 5674 5673 5672 5672 5672 5672 5672 5673 5673
5707 5704 5702 5700 5698 5696 5694 5692 5690 5688 5686 5685 5684 5683 5682 5681 5681 5680 5680 5680 5679 5679 5678 5678 5677 5676 5675 5675 5674 5673 5671 5670 5669 5667 5666 5664 5663 5662 5661 5661 5661 5661 5662
5708 5706 5704 5702 5700 5698 5696 5694 5692 5691 5689 5687 5686 5685 5684 5683 5682 5681 5680 5679 5678 5677 5676 5675 5674 5672 5671 5670 5669 5667 5666 5664 5663 5661 5658 5656 5655 5654 5653 5652 5652 5652 5652
5711 5709 5707 5705 5703 5701 5699 5698 5696 5694 5693 5691 5689 5688 5687 5685 5684 5683 5681 5680 5678 5677 5675 5673 5672 5670 5669 5667 5665 5663 5661 5659 5657 5655 5653 5650 5649 5647 5646 5645 5645 5644 5644
5714 5712 5710 5709 5707 5705 5703 5702 5700 5698 5696 5695 5693 5692 5690 5688 5687 5685 5683 5682 5680 5678 5676 5674 5672 5670 5668 5665 5663 5661 5658 5656 5653 5650 5648 5646 5644 5642 5640 5639 5638 5637 5637
5717 5716 5714 5712 5711 5709 5707 5706 5704 5702 5701 5699 5697 5695 5694 5692 5690 5688 5686 5684 5682 5680 5678 5675 5673 5670 5668 5665 5662 5659 5656 5653 5650 5647 5644 5642 5640 5637 5636 5634 5632 5631 5630